Hordville, Nebraska
Current Conditions -  °F | °C
As of 1:55 AM on Sunday 26 Oct 2014 (Local Time) from KAUH Reporting Station
Clear Clear  
Wind Chill: 55°   Ceiling: Unl
Heat Index: 55°   Visibility: 10mi
Dew Point: 43°   Wind: 12mph
Humidity: 64%   Direction: 110°ESE
Pressure: 29.91"   Gusts: NA
Location:  41.08°N, 97.89°W
Report Text: KAUH 260655Z AUTO 11010KT 10SM CLR 13/06 A2991 RMK AO2 T01270060
Loading
Personal Weather Stations






























Interactive Weather Map
Tropical Storm Tracking
New forecast layout! Learn more

10-Day Weather Forecast

Advertisements
Track Severe Weather on mobile